This is the latest recevied weather packets stored in our database for station/object OE-11372. If no packets are shown the sender has not sent any weather packets the latest 10 day(s).
| Time | Temp. | Humidity | Pressure | Rain* | Wind** | Luminosity | Snow |
|---|---|---|---|---|---|---|---|
| 1787968503 | 12.22° C | 93% | 854.9 hPa | 4.32 mm | - | 0 W/m² | - |
| 1787967675 | 12.22° C | 92% | 854.9 hPa | 4.83 mm | - | 0 W/m² | - |
| 1787967303 | 12.22° C | 88% | 854.7 hPa | 4.57 mm | - | 0 W/m² | - |
| 1787966703 | 12.78° C | 92% | 855.7 hPa | 3.3 mm | - | 0 W/m² | - |
| 1787965876 | 12.78° C | 89% | 855.4 hPa | 1.02 mm | - | 0 W/m² | - |
| 1787964903 | 13.33° C | 89% | 854.3 hPa | 1.52 mm | - | 0 W/m² | - |
| 1787964076 | 13.33° C | 85% | 854 hPa | 2.03 mm | - | 0 W/m² | - |
| 1787963703 | 13.89° C | 80% | 853.6 hPa | 1.52 mm | - | 0 W/m² | - |
| 1787963102 | 14.44° C | 80% | 853 hPa | 1.52 mm | - | 0 W/m² | - |
| 1787962275 | 15.56° C | 81% | 852.9 hPa | 1.52 mm | - | 0 W/m² | - |
| 1787961902 | 16.11° C | 84% | 852.8 hPa | 1.52 mm | - | 0 W/m² | - |
| 1787961303 | 16.67° C | 85% | 852.6 hPa | 1.52 mm | - | 0 W/m² | - |
| 1787960476 | 17.78° C | 82% | 852.4 hPa | 1.02 mm | - | 0 W/m² | - |
| 1787960103 | 18.33° C | 77% | 852.5 hPa | 0 mm | - | 0 W/m² | - |
| 1787959502 | 18.33° C | 75% | 852.6 hPa | 0 mm | - | 0 W/m² | - |
| 1787958903 | 18.33° C | 75% | 852.8 hPa | 0 mm | - | 0 W/m² | - |
| 1787958302 | 18.33° C | 76% | 852.8 hPa | 0 mm | - | 0 W/m² | - |
| 1787957703 | 18.33° C | 75% | 852.8 hPa | 0 mm | - | 0 W/m² | - |
| 1787956876 | 18.33° C | 76% | 852.7 hPa | 0 mm | - | 0 W/m² | - |
| 1787956503 | 18.33° C | 76% | 852.7 hPa | 0 mm | - | 0 W/m² | - |
| 1787955903 | 18.33° C | 76% | 852.7 hPa | 0 mm | - | 0 W/m² | - |
| 1787955076 | 18.89° C | 75% | 852.6 hPa | 0 mm | - | 0 W/m² | - |
| 1787954702 | 18.89° C | 74% | 852.7 hPa | 0 mm | - | 0 W/m² | - |
| 1787954103 | 18.89° C | 77% | 852.8 hPa | 0 mm | - | 0 W/m² | - |
| 1787953276 | 18.89° C | 76% | 852.3 hPa | 0 mm | - | 0 W/m² | - |
* Rain latest hour (hover to see other rain measurements)
** Current wind speed in m/s (hover to see current wind gust speed)